This demonstration page uses our WeatherBlox Daily Observations layout. Learn more.

Left ArrowRight Arrow

Hourly Observations for May 2, 2020

Temp ( °F °C ) Dew Point ( °F °C ) Humidity (%) Winds ( mph kmh ) Pressure ( in mb ) Visibility ( mi km ) Precip ( " mm )
12:52 am 00:52 Mostly Cloudy 66 18.9 53 11.7 63 63 S 13 20 29.89 1012 10 16 0.00 0.00
1:52 am 01:52 Mostly Cloudy 65 18.3 53 11.7 66 66 S 13 20 29.89 1012 10 16 0.00 0.00
2:52 am 02:52 Mostly Cloudy 65 18.3 53 11.7 66 66 S 10 17 29.89 1012 10 16 0.00 0.00
3:52 am 03:52 Clear 63 17.2 53 11.7 70 70 S 9 15 29.90 1012 10 16 0.00 0.00
4:52 am 04:52 Clear 62 16.7 53 11.7 73 73 SSE 9 15 29.90 1013 10 16 0.00 0.00
5:52 am 05:52 Clear 61 16.1 53 11.7 75 75 SSE 9 15 29.90 1013 10 16 0.00 0.00
6:52 am 06:52 Sunny 61 16.1 54 12.2 78 78 SSE 8 13 29.92 1013 10 16 0.00 0.00
7:52 am 07:52 Sunny 65 18.3 55 12.8 70 70 S 8 13 29.93 1014 10 16 0.00 0.00
8:52 am 08:52 Sunny 69 20.6 58 14.4 68 68 S 9 15 29.95 1014 10 16 0.00 0.00
9:52 am 09:52 Sunny 72 22.2 59 15 64 64 SSW 13 20 29.94 1014 10 16 0.00 0.00
10:52 am 10:52 Sunny 75 23.9 61 16.1 62 62 SSW 7 11 29.93 1014 10 16 0.00 0.00
11:52 am 11:52 Sunny 77 25 62 16.7 60 60 SSW 8 13 29.94 1014 10 16 0.00 0.00
12:52 pm 12:52 Sunny 80 26.7 63 17.2 56 56 SW 8 13 29.91 1013 10 16 0.00 0.00
1:52 pm 13:52 Sunny 82 27.8 63 17.2 53 53 S 9 15 29.88 1012 10 16 0.00 0.00
2:52 pm 14:52 Sunny 84 28.9 63 17.2 49 49 SSW 10 17 29.85 1011 10 16 0.00 0.00
3:52 pm 15:52 Sunny 85 29.4 63 17.2 48 48 S 9 15 29.81 1010 10 16 0.00 0.00
4:52 pm 16:52 Sunny 86 30 62 16.7 45 45 SSW 10 17 29.81 1010 10 16 0.00 0.00
5:52 pm 17:52 Sunny 85 29.4 61 16.1 45 45 S 13 20 29.80 1009 10 16 0.00 0.00
6:52 pm 18:52 Sunny 83 28.3 62 16.7 49 49 SSW 10 17 29.81 1010 10 16 0.00 0.00
7:52 pm 19:52 Sunny 78 25.6 62 16.7 58 58 WSW 6 9 29.84 1010 10 16 0.00 0.00
8:52 pm 20:52 Clear 74 23.3 61 16.1 64 64 WSW 7 11 29.86 1011 10 16 0.00 0.00
9:52 pm 21:52 Cloudy 71 21.7 62 16.7 73 73 S 6 9 29.87 1012 10 16 0.00 0.00
10:52 pm 22:52 Cloudy 72 22.2 62 16.7 71 71 SW 7 11 29.88 1012 10 16 0.00 0.00
11:52 pm 23:52 Cloudy 71 21.7 62 16.7 73 73 SW 8 13 29.88 1012 10 16 0.00 0.00

Powered by AerisWeather